RH
79 83 57 59 58 46 51 46 52 44 52 42 38 41 42 51 79 94 98 99 97 94 95 93 86 81 78 74 69 66 61 57 52 46 41 36 35 34 34 38 42 48 52 56
92 80 70 72 58 53 47 42 46 54 53 42 38 39 51 57 73 82 90 96 96 93 94 89 82 77 73 69 65 60 57 54 47 40 37 36 35 37 41 45 49 53 57 60
95 98 94 96 86 59 57 86 56 63 62 44 42 42 42 49 66 64 79 95 96 95 90 82 75 71 68 64 60 57 56 50 43 39 38 38 40 42 46 50 53 58 62 63
95 99 97 98 94 80 87 92 89 93 90 78 74 58 43 43 60 70 76 93 95 94 83 75 68 68 62 60 58 58 54 49 43 40 40 42 44 47 52 54 60 63 64 68
97 97 99 92 90 97 98 96 95 94 91 93 68 67 55 52 56 57 69 82 89 80 73 68 67 63 60 59 58 57 55 55 48 41 44 47 50 54 57 64 64 66 67 67
95 96 95 94 94 96 97 90 93 93 91 94 70 84 62 63 67 77 82 86 81 69 66 66 63 60 59 57 56 55 54 54 43 39 42 49 52 61 71 65 68 70 68 71
93 96 95 94 82 91 88 95 94 95 94 92 93 75 63 57 64 70 83 76 67 66 66 63 60 59 57 54 54 56 53 44 43 43 47 52 71 83 68 72 73 70 73 74
92 95 94 88 67 86 96 91 95 93 94 92 91 84 63 63 63 66 70 67 65 65 62 58 57 56 53 54 60 56 51 53 53 55 63 86 84 74 74 73 76 80 80 81
95 95 95 94 94 84 77 80 84 92 91 94 92 88 61 60 60 60 62 61 61 61 59 57 55 52 59 65 61 59 61 69 68 85 93 87 77 77 78 77 83 90 93 92
81 90 67 74 70 63 67 76 76 74 80 86 92 91 62 57 59 61 60 60 56 56 56 54 59 66 75 80 74 70 88 93 95 96 91 84 80 78 78 86 91 90 91 94
67 63 61 81 59 66 69 68 68 71 79 86 93 90 92 58 55 55 57 57 57 64 73 79 86 91 92 90 86 97 97 96 96 91 86 85 83 81 82 89 91 90 91 92
81 67 81 76 66 66 70 72 76 85 87 84 95 93 91 88 54 56 61 70 77 82 85 90 92 95 98 96 92 96 97 97 93 86 85 86 93 96 93 91 92 90 87 89
88 78 86 78 68 64 80 84 84 93 94 96 95 92 93 93 66 64 69 72 76 81 85 91 98 96 98 96 96 96 96 94 91 90 87 85 87 89 96 95 98 94 91 90
71 82 81 70 89 81 84 85 90 93 93 97 96 95 94 95 94 91 92 94 95 94 96 98 99 99 96 95 95 94 92 95 89 88 85 84 84 85 79 78 81 79 92 98
88 86 91 83 84 86 86 87 90 93 95 95 96 96 93 95 95 95 96 96 96 96 98 97 97 97 96 96 96 95 94 94 87 86 86 86 85 85 83 83 84 83 83 89
91 89 84 86 89 89 90 90 92 95 95 96 95 95 97 96 96 96 96 96 93 94 97 97 97 97 96 95 94 92 95 96 95 96 94 87 86 83 82 83 84 86 90 92
93 87 89 87 92 93 94 95 95 96 96 95 96 97 96 96 96 96 96 96 96 96 97 96 97 96 96 95 94 96 97 96 93 88 89 89 89 88 88 87 88 89 92 98
96 94 94 95 94 94 93 94 94 94 95 98 97 96 94 93 95 95 96 96 96 96 96 96 96 96 96 95 90 92 95 95 88 89 89 88 88 86 86 86 87 85 86 89
96 96 94 94 95 94 95 95 95 96 96 96 94 95 96 96 96 96 96 96 95 94 97 96 98 95 95 96 88 89 90 92 92 94 95 96 88 89 88 87 87 86 85 84
91 92 94 95 95 96 94 96 96 96 96 96 96 94 94 96 96 96 96 96 96 96 96 96 95 95 95 98 83 83 86 86 84 83 84 85 85 88 90 95 85 84 82 84
94 95 95 95 95 96 97 97 96 95 97 96 94 95 96 96 96 96 95 93 96 96 96 96 94 95 97 98 82 84 83 86 88 90 86 86 84 82 81 81 80 80 80 80
96 96 95 96 95 95 97 96 96 96 96 96 97 97 96 96 95 96 96 96 96 97 95 93 90 93 97 80 81 83 84 82 80 80 79 78 76 76 75 75 75 76 74 73
96 96 96 96 96 97 96 96 96 96 96 96 96 97 96 96 95 95 94 96 96 97 95 95 95 98 100 76 78 81 82 81 80 78 77 74 70 70 68 67 72 75 72 70
95 95 96 95 95 95 94 96 96 96 96 96 96 96 95 95 95 95 96 96 98 95 96 96 96 100 78 79 80 79 78 77 75 72 69 65 60 53 50 50 54 64 73 74
96 96 95 95 96 97 96 96 95 95 95 95 95 96 95 95 95 96 96 96 100 94 96 94 100 98 83 85 83 80 76 71 66 63 56 53 52 51 48 51 60 69 79 78
96 96 97 97 98 98 98 95 96 97 95 96 94 85 92 96 96 94 94 94 94 84 76 66 65 67 69 72 76 78 76 71 64 57 57 58 56 53 48 52 69 75 82 79
94 94 92 92 92 94 97 96 97 98 96 96 96 96 95 94 97 80 75 74 76 76 76 83 78 70 69 67 67 67 67 66 62 63 64 64 62 58 52 52 72 76 82 80
Wind_Speed
14 24 10 7 7 21 14 20 14 14 9 8 7 5 6 2 6 8 8 10 11 12 11 12 17 21 24 27 32 36 36 36 35 34 29 26 22 17 13 11 8 6 5 5
18 14 8 5 12 12 18 18 9 5 5 7 4 0 2 6 7 8 9 10 11 13 13 13 18 22 25 28 30 34 33 34 36 32 28 24 20 17 13 10 7 5 4 4
5 13 6 2 3 14 6 15 5 3 10 10 4 4 4 6 7 8 9 12 13 13 13 13 21 27 26 29 32 30 33 34 35 32 27 23 19 16 12 10 7 5 3 4
5 6 6 4 20 15 26 17 21 15 18 18 17 14 9 6 7 9 9 11 13 13 14 22 26 28 31 33 31 33 32 34 34 31 28 23 19 16 13 10 7 4 2 4
4 2 4 17 16 6 5 13 20 18 18 16 22 14 4 11 9 9 9 9 11 18 23 27 28 31 33 29 30 30 30 31 32 31 27 23 19 15 12 10 6 4 2 2
4 4 7 12 21 20 9 11 20 20 20 17 20 7 3 19 18 13 5 12 15 23 26 28 29 33 32 28 29 27 29 31 32 29 25 22 18 15 11 8 6 3 1 2
7 3 5 18 24 10 9 6 20 15 16 17 9 5 16 16 13 11 7 9 19 22 21 24 29 32 27 28 26 28 33 33 29 26 23 20 17 13 11 9 6 3 1 2
5 5 4 24 10 8 7 8 16 15 15 17 15 12 9 11 12 11 9 9 15 18 18 22 26 29 27 24 27 33 33 30 27 24 21 18 15 13 11 8 7 4 3 4
6 2 4 9 10 6 10 13 15 15 18 16 17 14 7 7 9 9 8 7 10 19 21 19 20 24 27 26 32 34 32 27 25 20 17 16 15 14 11 9 7 5 3 6
11 4 23 7 9 16 18 17 17 16 17 17 16 12 6 5 6 6 6 6 10 16 17 19 22 23 27 28 32 32 27 25 22 20 18 15 12 12 12 9 7 5 5 8
7 10 22 5 24 23 28 22 20 18 16 16 16 10 5 5 5 5 8 12 14 14 17 19 26 27 27 29 31 27 25 22 19 16 17 15 12 12 11 7 5 5 5 7
5 17 12 22 25 28 22 24 22 21 22 15 10 6 5 5 5 8 9 13 16 17 20 21 25 27 26 27 30 26 22 18 18 18 14 15 15 14 7 6 5 4 4 5
8 15 16 22 22 19 22 22 21 19 12 11 6 4 4 5 5 13 14 14 16 19 22 24 25 27 27 26 26 23 21 20 16 15 16 16 14 13 12 7 6 6 6 6
12 15 9 11 15 20 19 19 23 14 6 4 3 2 5 7 10 11 14 17 21 22 24 25 26 25 26 27 24 22 20 16 18 18 17 17 17 16 15 14 13 10 8 8
11 13 12 14 12 13 15 12 11 9 8 7 9 5 7 9 7 10 15 18 23 24 23 26 26 23 22 24 26 24 19 18 19 19 17 16 17 16 15 15 15 13 13 13
11 10 11 9 11 11 11 11 10 9 7 7 6 6 8 14 12 12 13 18 19 16 21 24 24 24 24 24 23 22 18 18 18 18 16 16 15 16 15 14 14 11 12 17
12 16 16 15 14 13 12 11 10 8 7 7 7 13 12 15 14 14 15 18 20 21 22 23 24 25 23 23 22 19 18 17 16 18 17 16 16 15 13 13 12 12 11 10
8 9 10 11 12 12 11 11 10 11 8 12 13 16 13 12 9 13 17 21 23 22 21 22 23 23 21 22 22 21 20 20 19 18 17 16 15 13 13 12 13 15 15 13
13 10 14 14 15 11 10 10 11 13 14 13 14 15 16 14 14 14 19 19 18 16 15 18 17 18 17 16 19 20 20 20 18 17 16 14 14 13 14 14 15 15 16 17
13 17 16 16 17 15 12 14 13 15 14 13 17 17 17 14 14 17 20 15 15 17 18 18 19 18 17 15 16 19 19 19 18 16 15 15 14 14 12 12 13 14 15 17
10 14 14 15 14 16 17 17 14 14 17 20 17 16 16 16 12 12 13 11 13 16 16 16 16 15 14 14 17 18 18 18 16 16 15 14 13 13 12 12 11 12 13 15
10 11 12 14 13 14 18 18 18 18 18 16 16 16 18 15 13 14 14 12 12 13 14 14 12 10 12 14 15 16 17 18 17 16 15 13 11 11 10 9 10 11 13 15
11 11 11 12 12 11 15 17 17 17 17 17 16 14 16 13 11 7 5 7 10 13 14 13 12 10 11 15 16 16 16 16 16 14 12 9 8 7 7 7 8 9 13 16
10 12 12 11 12 12 10 13 14 14 13 13 14 12 11 9 10 8 4 8 10 13 12 12 11 8 11 12 13 13 12 12 12 10 8 6 5 5 5 6 7 9 11 15
8 9 12 13 10 9 11 10 10 10 11 13 13 11 8 6 7 9 11 12 11 11 14 10 7 6 9 8 8 9 9 8 8 7 6 5 3 4 6 7 9 11 13 15
5 7 8 10 11 11 10 11 8 8 7 7 9 9 8 8 8 6 6 6 8 8 5 3 3 4 6 6 6 6 5 6 7 7 5 3 4 5 7 7 7 9 12 16
9 7 9 9 13 12 10 10 11 10 7 6 7 7 7 6 6 4 4 4 4 2 1 2 2 2 4 4 5 5 5 5 5 4 3 2 4 6 7 7 7 10 12 16
Wind_Direction
271 264 237 190 194 209 200 213 214 226 203 230 235 251 254 205 149 143 149 155 158 153 146 143 141 141 143 145 151 156 152 155 159 166 165 164 165 167 171 179 190 205 227 252
295 220 188 158 197 197 221 229 231 141 234 238 282 134 185 179 177 183 182 168 161 159 150 148 147 146 144 145 149 152 148 149 160 162 162 162 162 166 169 173 180 202 225 264
281 155 120 77 278 184 163 32 300 314 358 336 346 307 252 229 211 195 183 160 160 163 153 153 151 147 146 146 147 146 145 150 156 161 161 162 163 164 163 169 180 195 229 268
261 174 177 103 28 73 87 45 25 17 11 347 330 314 255 210 193 216 188 166 163 156 152 151 146 144 143 146 148 146 144 149 157 161 161 162 162 162 163 166 172 191 225 279
324 321 75 29 354 350 6 58 21 7 357 351 331 306 299 18 328 246 205 184 162 156 150 144 145 145 143 143 144 144 144 149 156 161 159 160 160 158 163 164 163 187 234 301
328 30 34 329 335 324 234 44 7 4 354 353 345 0 4 351 336 314 174 150 146 144 143 143 148 147 143 145 144 143 147 149 158 161 159 159 158 160 161 158 155 171 167 333
358 18 79 335 343 354 60 327 324 355 344 343 356 304 296 326 353 350 29 105 125 136 142 145 147 147 143 145 144 143 146 151 154 157 156 155 152 154 159 149 155 141 67 9
349 20 0 344 14 48 343 311 326 335 337 339 334 334 328 338 5 10 48 81 117 117 121 136 144 143 140 136 136 139 141 142 146 149 146 146 150 155 145 142 129 109 78 24
24 47 13 318 86 33 357 332 333 323 332 333 335 345 352 353 5 26 24 54 95 117 116 122 135 142 129 132 135 136 136 136 140 140 138 151 157 148 141 137 116 95 65 7
338 48 338 316 2 354 348 337 322 328 328 333 331 344 1 26 19 37 42 63 99 111 114 114 115 117 120 126 131 131 124 131 137 141 145 150 146 145 140 126 104 79 43 14
291 348 334 147 347 333 326 325 329 327 328 327 329 345 17 26 49 54 68 69 83 92 96 101 112 113 122 127 130 123 128 133 134 139 149 144 141 141 135 119 100 76 31 14
291 326 300 297 316 316 319 326 322 322 322 336 339 5 63 66 44 69 69 86 90 93 98 103 108 110 114 125 138 129 122 126 138 144 143 143 138 129 124 117 114 81 50 31
294 300 297 299 304 318 316 311 309 306 312 328 351 62 92 95 108 101 91 96 99 105 106 107 105 108 120 130 129 124 122 130 133 136 135 133 140 142 134 122 107 91 61 35
304 314 307 315 309 308 305 309 306 300 319 340 26 84 106 93 97 98 107 113 112 110 108 108 106 108 127 132 130 131 129 134 137 135 133 133 128 123 118 111 97 87 71 41
311 309 288 290 297 308 313 319 331 349 353 11 30 56 98 101 104 113 120 122 120 116 116 114 112 115 133 134 131 130 131 131 134 132 130 128 123 113 105 95 89 85 65 50
305 288 304 322 317 328 331 342 355 358 8 14 38 49 74 89 94 101 117 126 123 117 114 112 110 121 134 137 134 132 131 135 132 131 133 126 114 102 94 86 76 68 57 35
338 343 342 345 345 346 348 350 0 8 15 19 32 62 68 82 82 88 89 100 103 102 108 113 115 130 133 132 129 129 132 133 132 134 130 128 117 106 102 90 77 66 61 38
319 322 332 342 341 345 352 354 4 17 23 38 54 68 66 76 85 92 95 95 94 91 100 118 128 128 130 138 142 142 140 137 135 129 130 121 111 103 91 80 65 55 45 33
348 342 351 356 354 350 354 0 9 28 31 49 64 65 67 69 86 93 96 93 95 100 104 111 113 123 127 134 146 146 142 137 133 130 120 116 110 95 82 74 64 54 44 34
355 360 360 359 2 6 3 8 32 46 47 61 68 70 71 61 77 84 86 79 91 100 115 114 120 123 127 131 144 144 145 140 129 121 119 112 103 97 89 71 58 48 38 30
352 354 358 0 2 10 13 18 30 38 48 59 65 63 62 62 66 83 90 89 99 106 104 111 120 126 129 136 144 142 139 137 134 130 123 116 109 95 83 71 55 38 28 20
344 348 354 359 8 14 19 30 40 45 48 51 60 68 69 57 60 66 77 88 106 111 110 110 115 120 123 136 141 139 134 131 126 122 115 110 103 93 79 65 49 32 18 11
358 360 1 5 5 9 31 37 40 48 48 48 50 56 72 67 58 46 65 82 110 107 110 109 112 121 127 138 135 135 134 131 125 119 114 106 92 74 55 38 27 15 12 7
3 12 15 19 30 27 27 24 40 47 55 56 56 55 64 68 63 53 122 107 96 93 95 101 109 118 130 132 137 136 136 134 128 120 116 96 70 48 33 20 6 4 8 3
14 20 28 28 20 14 24 28 37 42 47 50 51 53 58 59 88 69 88 91 89 101 96 90 98 124 144 150 151 145 146 137 121 119 115 103 81 33 19 8 9 359 3 358
5 33 35 33 26 23 20 27 26 33 46 55 54 54 62 70 74 69 68 89 107 106 85 87 107 138 147 151 162 158 152 143 133 136 122 91 49 22 9 1 353 353 355 355
5 22 31 20 21 17 22 30 35 23 28 42 53 42 48 56 60 46 47 64 88 101 90 107 120 161 151 154 160 163 163 164 158 132 108 48 20 7 353 334 337 351 352 350